Weather History for KCLT - May, 2014

Change the Weather History Date:

Wednesday, May 7, 2014

  Actual Average Record
Temperature  
Mean Temperature 71 °F 65 °F  
Max Temperature 85 °F 77 °F 95 °F (1940)
Min Temperature 57 °F 53 °F 38 °F (1891)
Degree Days  
Heating Degree Days 0 2  
Month to date heating degree days 11 21  
Since 1 July heating degree days 3373 3353  
Cooling Degree Days 6 2  
Month to date cooling degree days 20 14  
Year to date cooling degree days 59 51  
Growing Degree Days 20 (Base 50)    
Moisture  
Dew Point 57 °F    
Average Humidity 64    
Maximum Humidity 87    
Minimum Humidity 40    
Precipitation  
Precipitation 0.00 in 0.10 in 2.58 in (1915)
Month to date precipitation 0.00 0.68  
Year to date precipitation 18.74 14.46  
Snow  
Snow 0.00 in 0.00 in 0.00 in ()
Month to date snowfall 0.0 0.0  
Since 1 July snowfall 9.3 4.3  
Snow Depth 0.00 in    
Sea Level Pressure  
Sea Level Pressure 30.07 in    
Wind  
Wind Speed 5 mph (NNW)    
Max Wind Speed 13 mph    
Max Gust Speed 17 mph    
Visibility 10 miles    
Events      
T = Trace of Precipitation, MM = Missing Value Source: NWS Daily Summary

Daily Weather History Graph

Daily Weather History Graph

Search for Another Location

Airport or City:

Trip Planner

Search our weather history database for the weather conditions in past years. The results will help you decide how hot, cold, wet, or windy it might be!

Date:

Astronomy

May. 07, 2014 Rise Set
Actual Time 6:26 AM EDT 8:14 PM EDT
Civil Twilight 5:59 AM EDT 8:42 PM EDT
Nautical Twilight 5:25 AM EDT 9:15 PM EDT
Astronomical Twilight 4:50 AM EDT 9:51 PM EDT
Moon 1:33 PM EDT (5/7) 2:09 AM EDT (5/7)
Length of Visible Light 14h 43m
Length of Day
13h 48m
First Quarter, 55% of the Moon is Illuminated
May 7
First Quarter
May 14
Full
May 21
Last Quarter
May 28
New
Jun 5
First Quarter

Hourly Weather History & Observations

Time (EDT) Temp. Heat Index Dew Point Humidity Pressure Visibility Wind Dir Wind Speed Gust Speed Precip Events Conditions
12:52 AM 68.0 °F - 52.0 °F 56% 29.96 in 10.0 mi Calm Calm - N/A   Clear
1:52 AM 66.9 °F - 53.1 °F 61% 29.95 in 10.0 mi SSW 3.5 mph - N/A   Clear
2:52 AM 63.0 °F - 53.1 °F 70% 29.95 in 10.0 mi Calm Calm - N/A   Clear
3:52 AM 62.1 °F - 54.0 °F 75% 29.97 in 10.0 mi NNW 3.5 mph - N/A   Clear
4:52 AM 57.2 °F - 53.6 °F 88% 30.01 in 10.0 mi NNW 3.5 mph - N/A   Clear
5:52 AM 60.1 °F - 55.0 °F 83% 30.00 in 10.0 mi North 5.8 mph - N/A   Clear
6:52 AM 59.0 °F - 55.9 °F 90% 30.04 in 7.0 mi North 4.6 mph - N/A   Partly Cloudy
7:52 AM 62.6 °F - 57.2 °F 82% 30.08 in 8.0 mi North 9.2 mph - N/A   Partly Cloudy
7:57 AM 62.6 °F - 57.2 °F 82% 30.08 in 8.0 mi NNE 11.5 mph - N/A   Mostly Cloudy
8:27 AM 64.4 °F - 59.0 °F 83% 30.10 in 9.0 mi North 9.2 mph - N/A   Scattered Clouds
8:52 AM 66.0 °F - 59.0 °F 78% 30.09 in 10.0 mi North 8.1 mph - N/A   Scattered Clouds
9:52 AM 66.9 °F - 59.0 °F 76% 30.12 in 10.0 mi North 9.2 mph - N/A   Partly Cloudy
9:59 AM 66.2 °F - 59.0 °F 78% 30.14 in 10.0 mi North 9.2 mph - N/A   Mostly Cloudy
10:31 AM 69.8 °F - 60.8 °F 73% 30.14 in 10.0 mi NNE 9.2 mph - N/A   Mostly Cloudy
10:52 AM 71.1 °F - 60.1 °F 68% 30.13 in 10.0 mi NNE 6.9 mph - N/A   Scattered Clouds
11:52 AM 75.0 °F - 61.0 °F 62% 30.13 in 10.0 mi North 6.9 mph - N/A   Clear
12:52 PM 78.1 °F - 61.0 °F 56% 30.12 in 10.0 mi Variable 4.6 mph - N/A   Partly Cloudy
1:52 PM 80.1 °F 80.9 °F 60.1 °F 50% 30.11 in 10.0 mi Variable 4.6 mph - N/A   Partly Cloudy
2:52 PM 84.0 °F 83.3 °F 57.0 °F 40% 30.10 in 10.0 mi Variable 3.5 mph - N/A   Partly Cloudy
3:52 PM 82.9 °F 82.4 °F 57.0 °F 41% 30.08 in 10.0 mi Variable 5.8 mph - N/A   Scattered Clouds
4:52 PM 84.0 °F 84.0 °F 60.1 °F 44% 30.08 in 10.0 mi SW 5.8 mph - N/A   Scattered Clouds
5:52 PM 82.4 °F 82.0 °F 57.2 °F 42% 30.09 in 10.0 mi WSW 4.6 mph - N/A   Mostly Cloudy
6:52 PM 82.9 °F 82.0 °F 55.0 °F 38% 30.06 in 10.0 mi SSW 5.8 mph - N/A   Mostly Cloudy
7:52 PM 79.0 °F - 55.9 °F 45% 30.07 in 10.0 mi SSW 5.8 mph - N/A   Scattered Clouds
8:52 PM 73.9 °F - 55.9 °F 53% 30.08 in 10.0 mi SSW 3.5 mph - N/A   Partly Cloudy
9:52 PM 71.1 °F - 55.0 °F 57% 30.09 in 10.0 mi SSW 4.6 mph - N/A   Partly Cloudy
10:52 PM 70.0 °F - 54.0 °F 57% 30.10 in 10.0 mi Calm Calm - N/A   Partly Cloudy
11:52 PM 66.9 °F - 54.0 °F 63% 30.10 in 10.0 mi Calm Calm - N/A   Clear